Black River Falls, WI

8:35 AM CDT on September 23, 2017 (GMT -0500)
Black River Falls Area

Weather History for KBCK - March, 2014

Change the Weather History Date:

Thursday, March 6, 2014

  Actual Average (KCMY) Record (KCMY)
Temperature  
Mean Temperature 11 °F -  
Max Temperature 32 °F 38 °F 64 °F (1974)
Min Temperature -10 °F 17 °F -16 °F (1960)
Degree Days  
Heating Degree Days 54    
Moisture  
Dew Point 4 °F    
Average Humidity 66    
Maximum Humidity 84    
Minimum Humidity 46    
Precipitation  
Precipitation 0.00 in - - ()
Sea Level Pressure  
Sea Level Pressure 30.18 in    
Wind  
Wind Speed 3 mph (SSE)    
Max Wind Speed 13 mph    
Max Gust Speed 18 mph    
Visibility 10 miles    
Events      
Averages and records for this station are not official NWS values.
T = Trace of Precipitation, MM = Missing Value Source: NWS Daily Summary

Daily Weather History Graph

Daily Weather History Graph

Search for Another Location

Airport or City:

Trip Planner

Search our weather history database for the weather conditions in past years. The results will help you decide how hot, cold, wet, or windy it might be!

Date:

Astronomy

Mar. 06, 2014 Rise Set
Actual Time 6:31 AM CST 5:58 PM CST
Civil Twilight 6:02 AM CST 6:27 PM CST
Nautical Twilight 5:29 AM CST 7:00 PM CST
Astronomical Twilight 4:55 AM CST 7:34 PM CST
Moon 9:27 AM CST (3/6) No Moon Set
Length of Visible Light 12h 24m
Length of Day
11h 26m
Waxing Crescent, 32% of the Moon is Illuminated
Mar 6
Waxing Crescent
Mar 8
First Quarter
Mar 16
Full
Mar 23
Last Quarter
Mar 30
New

Hourly Weather History & Observations

Time (CST) Temp. Windchill Dew Point Humidity Pressure Visibility Wind Dir Wind Speed Gust Speed Precip Events Conditions
12:15 AM 0.9 °F - -4.7 °F 77% 30.42 in 10.0 mi Calm Calm - N/A   Clear
12:35 AM -1.3 °F - -6.3 °F 79% 30.42 in 10.0 mi Calm Calm - N/A   Clear
12:55 AM -2.7 °F - -7.1 °F 82% 30.42 in 10.0 mi Calm Calm - N/A   Clear
1:15 AM -3.6 °F - -7.8 °F 82% 30.41 in 10.0 mi Calm Calm - N/A   Clear
1:35 AM -4.0 °F -12.4 °F -8.3 °F 82% 30.41 in 10.0 mi East 3.5 mph - N/A   Clear
1:55 AM -3.5 °F - -7.2 °F 84% 30.41 in 10.0 mi Calm Calm - N/A   Clear
2:15 AM -5.8 °F - -10.3 °F 81% 30.40 in 10.0 mi Calm Calm - N/A   Clear
2:35 AM -5.1 °F - -9.0 °F 83% 30.40 in 10.0 mi Calm Calm - N/A   Clear
2:55 AM -6.0 °F - -10.3 °F 82% 30.38 in 10.0 mi Calm Calm - N/A   Clear
3:15 AM -7.6 °F - -12.5 °F 79% 30.38 in 10.0 mi Calm Calm - N/A   Scattered Clouds
3:35 AM -7.2 °F - -11.6 °F 81% 30.37 in 10.0 mi Calm Calm - N/A   Clear
3:55 AM -7.1 °F - -11.7 °F 80% 30.37 in 10.0 mi Calm Calm - N/A   Clear
4:15 AM -7.4 °F - -12.5 °F 79% 30.37 in 10.0 mi Calm Calm - N/A   Clear
4:35 AM -8.7 °F - -14.4 °F 76% 30.36 in 10.0 mi Calm Calm - N/A   Clear
4:55 AM -6.5 °F - -10.5 °F 83% 30.36 in 10.0 mi Calm Calm - N/A   Clear
5:15 AM -9.4 °F - -15.0 °F 76% 30.35 in 10.0 mi Calm Calm - N/A   Clear
5:35 AM -8.9 °F - -13.9 °F 79% 30.35 in 10.0 mi Calm Calm - N/A   Clear
5:55 AM -8.7 °F - -13.5 °F 79% 30.34 in 10.0 mi Calm Calm - N/A   Clear
6:15 AM -10.5 °F - -15.9 °F 77% 30.34 in 10.0 mi Calm Calm - N/A   Clear
6:35 AM -9.2 °F - -14.4 °F 78% 30.34 in 10.0 mi Calm Calm - N/A   Clear
6:55 AM -10.8 °F - -16.4 °F 76% 30.33 in 10.0 mi Calm Calm - N/A   Clear
7:15 AM -7.1 °F - -12.6 °F 77% 30.33 in 10.0 mi Calm Calm - N/A   Clear
7:35 AM -3.3 °F - -8.0 °F 80% 30.32 in 10.0 mi Calm Calm - N/A   Scattered Clouds
7:55 AM -0.2 °F - -5.3 °F 79% 30.31 in 10.0 mi Calm Calm - N/A   Overcast
8:15 AM 2.8 °F - -3.1 °F 76% 30.30 in 10.0 mi Calm Calm - N/A   Overcast
8:35 AM 5.9 °F - 0.1 °F 77% 30.29 in 10.0 mi Calm Calm - N/A   Overcast
8:55 AM 10.0 °F - 3.4 °F 74% 30.30 in 10.0 mi Calm Calm - N/A   Overcast
9:15 AM 11.7 °F - 4.1 °F 72% 30.28 in 10.0 mi Calm Calm - N/A   Overcast
9:35 AM 15.8 °F 8.6 °F 7.5 °F 70% 30.26 in 10.0 mi South 4.6 mph - N/A   Mostly Cloudy
9:55 AM 20.7 °F 11.9 °F 10.4 °F 65% 30.25 in 10.0 mi SSE 6.9 mph - N/A   Clear
10:15 AM 22.5 °F 14.1 °F 10.9 °F 61% 30.25 in 10.0 mi SSE 6.9 mph - N/A   Clear
10:35 AM 23.5 °F 13.0 °F 10.9 °F 59% 30.24 in 10.0 mi SSE 10.4 mph - N/A   Scattered Clouds
10:55 AM 24.4 °F 14.2 °F 10.8 °F 56% 30.22 in 10.0 mi SSE 10.4 mph - N/A   Mostly Cloudy
11:15 AM 25.3 °F 14.7 °F 10.4 °F 53% 30.21 in 10.0 mi SSE 11.5 mph - N/A   Overcast
11:35 AM 26.4 °F 17.3 °F 10.9 °F 52% 30.20 in 10.0 mi SSE 9.2 mph - N/A   Overcast
11:55 AM 26.2 °F 18.6 °F 10.9 °F 52% 30.20 in 10.0 mi South 6.9 mph - N/A   Overcast
12:15 PM 27.9 °F 19.8 °F 10.9 °F 49% 30.19 in 10.0 mi South 8.1 mph - N/A   Overcast
12:35 PM 28.2 °F 21.0 °F 11.3 °F 49% 30.18 in 10.0 mi SSE 6.9 mph - N/A   Overcast
12:55 PM 29.1 °F 21.3 °F 11.7 °F 48% 30.16 in 10.0 mi SSE 8.1 mph - N/A   Overcast
1:15 PM 29.7 °F 24.7 °F 12.2 °F 48% 30.16 in 10.0 mi South 4.6 mph - N/A   Overcast
1:35 PM 29.1 °F 21.3 °F 12.0 °F 49% 30.15 in 10.0 mi South 8.1 mph - N/A   Overcast
1:55 PM 30.6 °F 23.1 °F 12.4 °F 47% 30.13 in 10.0 mi SSE 8.1 mph - N/A   Overcast
2:15 PM 31.1 °F 21.4 °F 12.4 °F 46% 30.11 in 10.0 mi South 12.7 mph 16.1 mph N/A   Scattered Clouds
2:35 PM 31.5 °F 21.8 °F 12.9 °F 46% 30.10 in 10.0 mi South 12.7 mph 18.4 mph N/A   Clear
2:55 PM 31.3 °F 22.7 °F 13.1 °F 47% 30.09 in 10.0 mi South 10.4 mph 17.3 mph N/A   Scattered Clouds
3:15 PM 32.0 °F 23.0 °F 13.5 °F 46% 30.09 in 10.0 mi South 11.5 mph - N/A   Scattered Clouds
3:35 PM 30.6 °F 25.8 °F 13.5 °F 49% 30.08 in 10.0 mi South 4.6 mph - N/A   Clear
3:55 PM 31.8 °F 23.9 °F 14.0 °F 48% 30.07 in 10.0 mi South 9.2 mph - N/A   Clear
4:15 PM 31.5 °F 22.3 °F 14.0 °F 49% 30.06 in 10.0 mi South 11.5 mph 17.3 mph N/A   Clear
4:35 PM 31.1 °F 24.5 °F 14.0 °F 49% 30.04 in 10.0 mi South 6.9 mph 17.3 mph N/A   Clear
4:55 PM 30.9 °F 22.8 °F 14.0 °F 50% 30.04 in 10.0 mi South 9.2 mph 16.1 mph N/A   Clear
5:15 PM 30.2 °F 21.9 °F 14.0 °F 51% 30.02 in 10.0 mi SSE 9.2 mph - N/A   Clear
5:35 PM 29.1 °F 21.3 °F 14.0 °F 53% 30.01 in 10.0 mi SSE 8.1 mph - N/A   Clear
5:55 PM 28.2 °F 22.0 °F 14.0 °F 55% 30.01 in 10.0 mi South 5.8 mph - N/A   Clear
6:15 PM 27.5 °F 19.3 °F 14.0 °F 57% 30.01 in 10.0 mi SSE 8.1 mph - N/A   Clear
6:35 PM 27.1 °F 21.8 °F 14.0 °F 58% 30.01 in 10.0 mi South 4.6 mph - N/A   Clear
6:55 PM 26.4 °F 22.4 °F 14.0 °F 59% 30.01 in 10.0 mi South 3.5 mph - N/A   Clear
7:15 PM 25.5 °F 21.3 °F 14.0 °F 62% 30.00 in 10.0 mi South 3.5 mph - N/A   Clear
7:35 PM 24.4 °F 20.1 °F 13.8 °F 64% 29.99 in 10.0 mi SSE 3.5 mph - N/A   Clear
7:55 PM 24.1 °F 18.2 °F 13.5 °F 64% 29.98 in 10.0 mi SSE 4.6 mph - N/A   Clear
8:15 PM 24.3 °F 16.3 °F 13.6 °F 64% 29.97 in 10.0 mi South 6.9 mph - N/A   Clear
8:35 PM 23.9 °F 16.8 °F 13.8 °F 65% 29.97 in 10.0 mi SSE 5.8 mph - N/A   Clear
8:55 PM 23.7 °F 17.8 °F 13.6 °F 65% 29.96 in 10.0 mi South 4.6 mph - N/A   Clear
9:15 PM 23.0 °F 18.4 °F 13.6 °F 67% 29.96 in 10.0 mi South 3.5 mph - N/A   Clear
9:35 PM 22.3 °F 17.6 °F 13.5 °F 69% 29.95 in 10.0 mi SSE 3.5 mph - N/A   Clear
9:55 PM 22.3 °F 16.1 °F 13.5 °F 69% 29.95 in 10.0 mi South 4.6 mph - N/A   Clear
10:15 PM 22.1 °F 15.9 °F 13.5 °F 69% 29.94 in 10.0 mi SSE 4.6 mph - N/A   Clear
10:35 PM 21.7 °F 15.5 °F 13.5 °F 70% 29.93 in 10.0 mi SSE 4.6 mph - N/A   Clear
10:55 PM 21.9 °F 17.2 °F 13.6 °F 70% 29.93 in 10.0 mi South 3.5 mph - N/A   Clear
11:15 PM 21.2 °F - 13.6 °F 73% 29.93 in 10.0 mi Calm Calm - N/A   Clear
11:35 PM 21.6 °F 16.8 °F 13.8 °F 72% 29.92 in 10.0 mi South 3.5 mph - N/A   Clear
11:55 PM 21.6 °F - 14.0 °F 73% 29.92 in 10.0 mi Calm Calm - N/A   Clear